Flag for Mexico Weather past 2 weeks in Puerto Vallarta, Jalisco, Mexico

Now
82 °F

Passing clouds.


Feels Like: 92 °F
Forecast: 75 / 88 °F
Wind: No wind

Location: Puerto Vallarta / Lic

Current Time: Aug 29, 2014 at 4:04:20 AM

Latest Report: Aug 29, 2014 at 2:46 AM


Visibility: 10 mi

Pressure: 29.80 "Hg

Humidity: 89%

Dew point: 79 °F

Location of Puerto VallartaLocation

Historic Weather in Puerto Vallarta — Graph

°F

Puerto Vallarta temperature yesterday

Maximum temperature yesterday: 91 °F (at 12:49 PM)
Minimum temperature yesterday: 82 °F (at 4:45 AM)
Average temperature yesterday: 86 °F

Past Weeks' High & Low Weather Summary

 TemperatureHumidityPressure
High91 °F (Aug 18, 1:42 PM)100% (Aug 23, 6:16 PM)29.98 "Hg (Aug 23, 6:16 PM)
Low34 °F (Aug 23, 6:16 PM)49% (Aug 18, 1:42 PM)29.76 "Hg (Aug 28, 7:45 PM)
Average81 °F79%29.88 "Hg
* Reported Aug 14 2:45 AM — Aug 29 2:46 AM, Puerto Vallarta, Weather by CustomWeather, © 2014

Note: Actual official high and low records may vary slightly from our data, if they occured in-between our weather recording intervals... More about our weather records

Advertising

Puerto Vallarta weather history for previous 24 hours

 ConditionsComfort  
Time TempWeatherWind HumidityBarometerVisibility
2:46 AM
Aug 29
82 °FPassing clouds.No wind89%29.80 "Hg10 mi
12:46 AM82 °FPassing clouds.No wind89%29.78 "Hg10 mi
11:45 PM
Aug 28
84 °FPassing clouds.No wind79%29.80 "Hg10 mi
10:45 PM84 °FPassing clouds.No wind79%29.79 "Hg10 mi
9:45 PM86 °FPassing clouds.No wind75%29.78 "Hg10 mi
7:45 PM88 °FBroken clouds.3 mph75%29.76 "Hg15 mi
5:46 PM90 °FPartly sunny.7 mph67%29.77 "Hg15 mi
3:50 PM90 °FBroken clouds.12 mph71%29.80 "Hg15 mi
2:48 PM91 °FScattered clouds.9 mph71%29.81 "Hg15 mi
12:49 PM91 °FBroken clouds.6 mph59%29.85 "Hg15 mi
11:47 AM90 °FBroken clouds.5 mph67%29.87 "Hg15 mi
10:48 AM86 °FBroken clouds.8 mph79%29.90 "Hg15 mi
9:45 AM84 °FBroken clouds.No wind79%29.85 "Hg15 mi
7:49 AM82 °FPartly cloudy.No wind89%29.85 "Hg10 mi
6:54 AM82 °FPartly cloudy.No wind89%29.82 "Hg12 mi
5:46 AM82 °FPassing clouds.No wind84%29.85 "Hg12 mi
4:45 AM82 °FMostly cloudy.3 mph89%29.85 "Hg12 mi
4:13 AM84 °FMostly cloudy.No wind84%29.83 "Hg12 mi
Weather by CustomWeather, © 2014

See weather overviewHow to use our weather pages